Location: Mercogliano
(40.9167°N, 14.7333°E)
Time: 14:35:25
(UTC+00:00)

Cosmos 2285 Rocket - Pass Details

Date: 18 September 2020
Orbit: 970 x 1000 km, 74.0° (Epoch: 28 October)

Event Time Altitude Azimuth Distance (km) Brightness Sun altitude
Rises 19:30:32 0° 202° (SSW) 3,648 6.9 -27.2°
Reaches altitude 10° 19:33:03 10° 203° (SSW) 2,706 6.2 -27.7°
Maximum altitude 19:39:19 78° 290° (WNW) 999 4.0 -28.7°
Drops below altitude 10° 19:45:41 10° 17° (NNE) 2,739 6.5 -29.7°
Sets 19:48:15 0° 19° (NNE) 3,695 7.2 -30.1°
